Terug naar catalogus

SL-16 DEB

ActiefLEO
NORAD 22436·DEBRIS·🇷🇺 Russia

Gelanceerd Dec 25, 1992 vanaf Baikonur Cosmodrome

Loading…

Volgende Passages (komende 24 uur)

TLE

VersSource: Space-Track

Epoch: Sep 14, 2026, 03:23 UTC

1 22436U 92093ED  26257.14110986  .00004633  00000-0  53647-3 0  9996
2 22436  71.5041 307.0492 0037580 259.0449 132.0473 14.85520215778700

Volg SL-16 DEB in realtime met AllMySat

Download on the App Store